QPF
0.01 0.01 0.03 0.03 0.01 0.01 0.00 0.00 0.00 0.00 0.00 0.00 0.00 0.00 0.01 0.00 0.01 0.02 0.02 0.02 0.02 0.04 0.07 0.10 0.15 0.17 0.20 0.16 0.15 0.13 0.10 0.09 0.08 0.07 0.07 0.11 0.15 0.15 0.08 0.06 0.06 0.05 0.06
0.01 0.01 0.03 0.03 0.01 0.01 0.00 0.00 0.00 0.00 0.00 0.00 0.01 0.01 0.01 0.01 0.01 0.01 0.02 0.03 0.03 0.04 0.05 0.08 0.10 0.12 0.13 0.12 0.12 0.11 0.09 0.11 0.10 0.07 0.07 0.10 0.22 0.18 0.10 0.08 0.06 0.04 0.07
0.02 0.02 0.01 0.02 0.01 0.01 0.00 0.00 0.00 0.00 0.00 0.00 0.01 0.01 0.01 0.01 0.01 0.01 0.02 0.02 0.03 0.04 0.05 0.07 0.07 0.07 0.07 0.11 0.10 0.07 0.08 0.09 0.08 0.08 0.07 0.05 0.13 0.16 0.13 0.13 0.08 0.06 0.08
0.03 0.02 0.01 0.01 0.02 0.01 0.01 0.01 0.00 0.00 0.00 0.01 0.01 0.02 0.02 0.02 0.02 0.02 0.02 0.02 0.02 0.03 0.04 0.08 0.09 0.09 0.08 0.08 0.06 0.06 0.10 0.10 0.08 0.10 0.08 0.05 0.08 0.11 0.15 0.22 0.13 0.08 0.10
0.02 0.01 0.01 0.01 0.01 0.01 0.01 0.01 0.01 0.00 0.00 0.01 0.03 0.02 0.02 0.02 0.02 0.03 0.03 0.03 0.03 0.02 0.04 0.06 0.11 0.14 0.10 0.07 0.07 0.07 0.08 0.15 0.12 0.10 0.10 0.09 0.10 0.09 0.09 0.19 0.17 0.09 0.12
0.01 0.01 0.01 0.00 0.00 0.00 0.01 0.01 0.01 0.00 0.00 0.01 0.02 0.02 0.03 0.04 0.03 0.03 0.03 0.03 0.03 0.03 0.04 0.05 0.06 0.08 0.08 0.09 0.09 0.09 0.08 0.14 0.16 0.11 0.10 0.09 0.09 0.10 0.09 0.10 0.13 0.10 0.14
0.00 0.02 0.02 0.01 0.00 0.00 0.01 0.01 0.01 0.01 0.01 0.01 0.01 0.02 0.04 0.04 0.03 0.06 0.05 0.03 0.03 0.03 0.04 0.04 0.04 0.05 0.07 0.10 0.09 0.10 0.08 0.08 0.11 0.11 0.11 0.11 0.09 0.10 0.08 0.08 0.09 0.10 0.16
0.00 0.01 0.01 0.01 0.01 0.01 0.02 0.02 0.02 0.01 0.01 0.01 0.02 0.03 0.02 0.03 0.09 0.18 0.07 0.04 0.03 0.03 0.03 0.04 0.05 0.06 0.07 0.09 0.08 0.08 0.08 0.09 0.13 0.12 0.10 0.12 0.13 0.12 0.10 0.09 0.10 0.10 0.11
0.00 0.00 0.00 0.00 0.01 0.02 0.02 0.03 0.02 0.01 0.01 0.01 0.02 0.03 0.02 0.03 0.15 0.23 0.06 0.03 0.03 0.04 0.04 0.04 0.04 0.05 0.07 0.08 0.07 0.08 0.09 0.08 0.06 0.07 0.11 0.12 0.13 0.12 0.11 0.12 0.13 0.14 0.13
0.00 0.00 0.00 0.00 0.00 0.01 0.02 0.02 0.02 0.02 0.02 0.02 0.02 0.02 0.03 0.03 0.10 0.16 0.08 0.05 0.04 0.04 0.04 0.04 0.04 0.05 0.07 0.08 0.08 0.08 0.08 0.06 0.03 0.03 0.04 0.09 0.09 0.10 0.12 0.12 0.11 0.14 0.14
0.00 0.00 0.01 0.00 0.00 0.00 0.01 0.02 0.02 0.02 0.02 0.02 0.02 0.02 0.02 0.02 0.03 0.05 0.06 0.05 0.05 0.05 0.04 0.04 0.03 0.05 0.06 0.06 0.06 0.08 0.07 0.05 0.02 0.02 0.01 0.03 0.04 0.06 0.09 0.09 0.11 0.12 0.13
0.00 0.00 0.00 0.00 0.00 0.00 0.00 0.01 0.02 0.02 0.02 0.02 0.02 0.01 0.01 0.01 0.02 0.03 0.06 0.08 0.08 0.07 0.06 0.06 0.05 0.06 0.06 0.04 0.04 0.04 0.04 0.03 0.03 0.01 0.02 0.02 0.03 0.04 0.05 0.08 0.12 0.12 0.13
0.01 0.00 0.01 0.00 0.00 0.00 0.00 0.00 0.00 0.01 0.01 0.02 0.02 0.01 0.01 0.01 0.02 0.02 0.03 0.05 0.06 0.05 0.05 0.05 0.05 0.04 0.03 0.02 0.03 0.02 0.02 0.02 0.02 0.01 0.03 0.03 0.04 0.05 0.06 0.09 0.13 0.13 0.12
0.01 0.01 0.00 0.00 0.00 0.00 0.00 0.00 0.01 0.01 0.01 0.02 0.01 0.01 0.02 0.03 0.04 0.02 0.03 0.03 0.03 0.02 0.02 0.03 0.02 0.02 0.02 0.02 0.02 0.02 0.02 0.01 0.01 0.03 0.04 0.04 0.04 0.06 0.08 0.12 0.13 0.13 0.13
0.01 0.01 0.01 0.01 0.01 0.01 0.00 0.01 0.01 0.02 0.02 0.01 0.01 0.02 0.03 0.04 0.04 0.02 0.02 0.02 0.01 0.01 0.01 0.03 0.04 0.03 0.03 0.03 0.02 0.04 0.03 0.01 0.02 0.03 0.04 0.04 0.04 0.06 0.09 0.11 0.10 0.12 0.10
0.01 0.01 0.01 0.02 0.02 0.01 0.01 0.01 0.02 0.02 0.02 0.01 0.01 0.01 0.02 0.04 0.03 0.02 0.02 0.01 0.01 0.02 0.02 0.05 0.06 0.05 0.04 0.03 0.04 0.05 0.04 0.03 0.03 0.03 0.02 0.03 0.06 0.07 0.09 0.12 0.12 0.12 0.10
0.01 0.02 0.01 0.01 0.01 0.01 0.00 0.01 0.01 0.02 0.02 0.01 0.01 0.01 0.04 0.06 0.03 0.02 0.02 0.01 0.02 0.03 0.03 0.05 0.07 0.07 0.06 0.06 0.06 0.05 0.04 0.04 0.03 0.03 0.01 0.02 0.05 0.08 0.10 0.12 0.12 0.11 0.09
0.01 0.02 0.01 0.01 0.01 0.00 0.00 0.01 0.01 0.01 0.01 0.01 0.01 0.02 0.04 0.05 0.05 0.03 0.03 0.02 0.02 0.03 0.04 0.04 0.05 0.06 0.05 0.05 0.05 0.03 0.03 0.04 0.03 0.02 0.02 0.02 0.03 0.05 0.07 0.10 0.10 0.07 0.06
0.02 0.02 0.01 0.00 0.00 0.00 0.01 0.01 0.01 0.01 0.01 0.01 0.01 0.03 0.05 0.06 0.05 0.03 0.03 0.04 0.04 0.04 0.04 0.06 0.06 0.06 0.05 0.04 0.03 0.02 0.02 0.02 0.03 0.03 0.03 0.02 0.02 0.02 0.03 0.05 0.06 0.05 0.04
0.02 0.02 0.01 0.01 0.01 0.01 0.01 0.02 0.02 0.01 0.01 0.01 0.01 0.03 0.06 0.07 0.04 0.04 0.04 0.05 0.05 0.06 0.07 0.08 0.07 0.07 0.05 0.04 0.03 0.02 0.01 0.02 0.02 0.02 0.03 0.02 0.02 0.03 0.03 0.02 0.03 0.03 0.04
0.03 0.03 0.02 0.01 0.02 0.02 0.02 0.02 0.02 0.01 0.02 0.02 0.01 0.02 0.03 0.04 0.04 0.04 0.06 0.06 0.05 0.07 0.08 0.08 0.07 0.07 0.06 0.04 0.03 0.02 0.02 0.02 0.01 0.02 0.02 0.03 0.04 0.05 0.03 0.02 0.01 0.01 0.03
0.03 0.03 0.03 0.03 0.03 0.04 0.04 0.03 0.03 0.03 0.03 0.02 0.02 0.02 0.02 0.03 0.02 0.04 0.05 0.07 0.06 0.07 0.09 0.08 0.06 0.06 0.05 0.03 0.02 0.03 0.02 0.02 0.03 0.02 0.02 0.03 0.04 0.03 0.02 0.02 0.02 0.02 0.02
0.03 0.03 0.04 0.04 0.05 0.06 0.07 0.07 0.06 0.04 0.02 0.01 0.00 0.01 0.02 0.02 0.02 0.03 0.05 0.09 0.09 0.07 0.07 0.07 0.07 0.06 0.03 0.02 0.02 0.02 0.02 0.01 0.02 0.01 0.01 0.01 0.01 0.01 0.01 0.02 0.03 0.02 0.02
0.02 0.02 0.03 0.05 0.06 0.08 0.10 0.09 0.07 0.05 0.02 0.01 0.02 0.01 0.01 0.01 0.02 0.03 0.05 0.09 0.12 0.09 0.07 0.06 0.07 0.05 0.03 0.02 0.03 0.03 0.02 0.01 0.02 0.02 0.02 0.01 0.02 0.02 0.01 0.01 0.01 0.01 0.01
0.01 0.01 0.01 0.02 0.03 0.04 0.06 0.07 0.06 0.04 0.03 0.02 0.03 0.01 0.01 0.01 0.02 0.02 0.04 0.09 0.12 0.11 0.08 0.06 0.06 0.04 0.02 0.02 0.02 0.02 0.02 0.02 0.03 0.04 0.03 0.02 0.01 0.02 0.02 0.01 0.01 0.01 0.01
0.01 0.01 0.01 0.01 0.01 0.02 0.05 0.05 0.04 0.04 0.04 0.03 0.03 0.02 0.02 0.01 0.01 0.02 0.03 0.05 0.09 0.11 0.09 0.06 0.05 0.04 0.02 0.01 0.02 0.02 0.02 0.03 0.03 0.04 0.03 0.02 0.02 0.03 0.03 0.03 0.02 0.02 0.02
MSLP
1010.47 1010.23 1010.13 1010.17 1010.32 1010.54 1010.80 1011.06 1011.33 1011.61 1011.92 1012.29 1012.73 1013.23 1013.76 1014.28 1014.74 1015.10 1015.35 1015.48 1015.54 1015.56 1015.58 1015.66 1015.79 1015.98 1016.21 1016.44 1016.66 1016.83 1016.97 1017.06 1017.14 1017.20 1017.27 1017.35 1017.44 1017.52 1017.59 1017.66 1017.73 1017.81 1017.91
1010.36 1010.24 1010.23 1010.34 1010.52 1010.74 1010.97 1011.20 1011.44 1011.70 1012.02 1012.42 1012.90 1013.46 1014.05 1014.61 1015.11 1015.49 1015.74 1015.87 1015.91 1015.91 1015.93 1015.99 1016.11 1016.28 1016.49 1016.70 1016.89 1017.05 1017.16 1017.26 1017.34 1017.42 1017.51 1017.61 1017.70 1017.79 1017.85 1017.91 1017.96 1018.02 1018.11
1010.10 1010.10 1010.21 1010.41 1010.65 1010.92 1011.18 1011.42 1011.66 1011.93 1012.26 1012.67 1013.18 1013.75 1014.36 1014.93 1015.43 1015.80 1016.03 1016.15 1016.18 1016.18 1016.19 1016.25 1016.37 1016.54 1016.73 1016.92 1017.10 1017.23 1017.35 1017.44 1017.54 1017.64 1017.75 1017.87 1017.98 1018.07 1018.13 1018.17 1018.20 1018.25 1018.32
1009.79 1009.91 1010.13 1010.43 1010.77 1011.11 1011.43 1011.72 1011.99 1012.28 1012.62 1013.04 1013.54 1014.09 1014.67 1015.21 1015.67 1016.01 1016.22 1016.32 1016.35 1016.36 1016.39 1016.47 1016.60 1016.77 1016.96 1017.14 1017.30 1017.43 1017.54 1017.64 1017.75 1017.87 1018.01 1018.14 1018.26 1018.36 1018.41 1018.44 1018.46 1018.49 1018.55
1009.54 1009.74 1010.06 1010.45 1010.88 1011.31 1011.71 1012.06 1012.38 1012.70 1013.04 1013.45 1013.91 1014.43 1014.95 1015.43 1015.84 1016.13 1016.32 1016.41 1016.46 1016.49 1016.55 1016.66 1016.82 1017.01 1017.20 1017.38 1017.54 1017.66 1017.77 1017.87 1017.99 1018.13 1018.28 1018.43 1018.56 1018.65 1018.70 1018.71 1018.71 1018.73 1018.78
1009.44 1009.69 1010.06 1010.52 1011.02 1011.53 1011.99 1012.40 1012.76 1013.10 1013.45 1013.83 1014.26 1014.71 1015.17 1015.59 1015.94 1016.20 1016.37 1016.46 1016.53 1016.60 1016.71 1016.86 1017.05 1017.26 1017.46 1017.65 1017.80 1017.92 1018.02 1018.13 1018.26 1018.41 1018.57 1018.72 1018.85 1018.93 1018.96 1018.96 1018.95 1018.95 1019.00
1009.53 1009.78 1010.16 1010.65 1011.19 1011.74 1012.24 1012.68 1013.07 1013.42 1013.76 1014.12 1014.51 1014.92 1015.32 1015.69 1016.00 1016.24 1016.40 1016.52 1016.62 1016.74 1016.88 1017.07 1017.29 1017.52 1017.73 1017.92 1018.06 1018.18 1018.29 1018.40 1018.54 1018.69 1018.85 1019.01 1019.13 1019.20 1019.22 1019.20 1019.17 1019.16 1019.20
1009.79 1010.01 1010.37 1010.84 1011.38 1011.92 1012.42 1012.87 1013.26 1013.61 1013.95 1014.29 1014.66 1015.03 1015.41 1015.75 1016.05 1016.28 1016.46 1016.61 1016.74 1016.90 1017.08 1017.29 1017.53 1017.76 1017.97 1018.15 1018.29 1018.41 1018.52 1018.64 1018.78 1018.95 1019.12 1019.27 1019.39 1019.45 1019.46 1019.43 1019.39 1019.37 1019.39
1010.14 1010.32 1010.64 1011.06 1011.55 1012.06 1012.53 1012.95 1013.33 1013.66 1013.99 1014.33 1014.68 1015.06 1015.43 1015.78 1016.09 1016.34 1016.55 1016.73 1016.90 1017.07 1017.27 1017.49 1017.72 1017.94 1018.14 1018.31 1018.45 1018.57 1018.69 1018.82 1018.98 1019.16 1019.35 1019.51 1019.63 1019.70 1019.70 1019.67 1019.62 1019.58 1019.59
1010.47 1010.62 1010.90 1011.27 1011.70 1012.14 1012.56 1012.94 1013.28 1013.60 1013.92 1014.26 1014.63 1015.02 1015.41 1015.79 1016.13 1016.42 1016.66 1016.86 1017.05 1017.24 1017.44 1017.65 1017.86 1018.05 1018.23 1018.38 1018.51 1018.63 1018.77 1018.93 1019.12 1019.33 1019.54 1019.72 1019.86 1019.94 1019.96 1019.93 1019.88 1019.83 1019.83
1010.68 1010.83 1011.08 1011.41 1011.78 1012.16 1012.52 1012.85 1013.15 1013.45 1013.77 1014.12 1014.51 1014.93 1015.36 1015.78 1016.15 1016.48 1016.75 1016.99 1017.19 1017.38 1017.56 1017.74 1017.92 1018.09 1018.24 1018.37 1018.50 1018.63 1018.79 1018.98 1019.20 1019.44 1019.69 1019.91 1020.07 1020.18 1020.22 1020.21 1020.17 1020.13 1020.11
1010.71 1010.89 1011.14 1011.46 1011.79 1012.12 1012.43 1012.72 1012.99 1013.28 1013.60 1013.96 1014.38 1014.82 1015.29 1015.74 1016.15 1016.51 1016.82 1017.07 1017.29 1017.47 1017.64 1017.80 1017.95 1018.08 1018.21 1018.33 1018.45 1018.60 1018.78 1019.00 1019.25 1019.53 1019.82 1020.07 1020.28 1020.42 1020.49 1020.51 1020.49 1020.45 1020.43
1010.53 1010.77 1011.06 1011.38 1011.70 1012.01 1012.30 1012.57 1012.83 1013.12 1013.44 1013.82 1014.24 1014.71 1015.19 1015.67 1016.11 1016.50 1016.83 1017.10 1017.34 1017.53 1017.70 1017.84 1017.97 1018.09 1018.20 1018.31 1018.44 1018.59 1018.79 1019.03 1019.31 1019.62 1019.93 1020.22 1020.46 1020.64 1020.75 1020.80 1020.81 1020.79 1020.77
1010.21 1010.51 1010.84 1011.19 1011.53 1011.85 1012.14 1012.41 1012.69 1012.98 1013.32 1013.70 1014.13 1014.60 1015.08 1015.56 1016.01 1016.42 1016.78 1017.08 1017.34 1017.55 1017.74 1017.90 1018.03 1018.15 1018.26 1018.37 1018.51 1018.67 1018.87 1019.12 1019.41 1019.73 1020.05 1020.36 1020.62 1020.82 1020.97 1021.06 1021.10 1021.11 1021.10
1009.83 1010.17 1010.54 1010.92 1011.30 1011.64 1011.97 1012.27 1012.58 1012.89 1013.24 1013.62 1014.04 1014.49 1014.95 1015.41 1015.86 1016.27 1016.66 1017.00 1017.30 1017.56 1017.79 1017.99 1018.16 1018.30 1018.42 1018.55 1018.68 1018.85 1019.05 1019.29 1019.57 1019.87 1020.18 1020.48 1020.75 1020.97 1021.14 1021.26 1021.33 1021.37 1021.39
1009.51 1009.85 1010.24 1010.63 1011.03 1011.42 1011.79 1012.14 1012.49 1012.84 1013.19 1013.57 1013.96 1014.37 1014.79 1015.22 1015.65 1016.07 1016.47 1016.86 1017.22 1017.55 1017.85 1018.11 1018.33 1018.52 1018.67 1018.82 1018.96 1019.12 1019.31 1019.53 1019.78 1020.05 1020.33 1020.60 1020.84 1021.06 1021.24 1021.38 1021.48 1021.56 1021.61
1009.36 1009.65 1010.00 1010.39 1010.80 1011.21 1011.63 1012.03 1012.43 1012.81 1013.18 1013.54 1013.89 1014.25 1014.62 1015.00 1015.39 1015.80 1016.23 1016.66 1017.10 1017.51 1017.89 1018.22 1018.51 1018.75 1018.95 1019.12 1019.28 1019.43 1019.61 1019.80 1020.02 1020.25 1020.48 1020.71 1020.92 1021.11 1021.28 1021.43 1021.55 1021.66 1021.75
1009.47 1009.65 1009.91 1010.24 1010.62 1011.05 1011.50 1011.94 1012.38 1012.78 1013.16 1013.50 1013.81 1014.11 1014.41 1014.73 1015.09 1015.49 1015.93 1016.41 1016.90 1017.39 1017.85 1018.27 1018.63 1018.93 1019.18 1019.38 1019.56 1019.72 1019.89 1020.07 1020.26 1020.45 1020.64 1020.83 1021.00 1021.16 1021.31 1021.45 1021.58 1021.71 1021.83
1009.85 1009.87 1010.00 1010.24 1010.56 1010.96 1011.41 1011.87 1012.33 1012.75 1013.12 1013.44 1013.70 1013.94 1014.17 1014.43 1014.74 1015.12 1015.57 1016.08 1016.62 1017.18 1017.71 1018.20 1018.62 1018.98 1019.27 1019.52 1019.72 1019.92 1020.10 1020.28 1020.47 1020.64 1020.81 1020.96 1021.10 1021.23 1021.35 1021.47 1021.59 1021.73 1021.86
1010.49 1010.33 1010.30 1010.40 1010.62 1010.96 1011.37 1011.82 1012.27 1012.69 1013.04 1013.32 1013.54 1013.72 1013.89 1014.09 1014.35 1014.71 1015.15 1015.67 1016.25 1016.85 1017.43 1017.97 1018.44 1018.85 1019.19 1019.48 1019.73 1019.97 1020.19 1020.41 1020.62 1020.81 1020.97 1021.11 1021.23 1021.33 1021.42 1021.51 1021.62 1021.75 1021.89
1011.32 1010.98 1010.77 1010.71 1010.81 1011.04 1011.38 1011.78 1012.20 1012.58 1012.90 1013.14 1013.31 1013.43 1013.54 1013.69 1013.92 1014.24 1014.67 1015.19 1015.78 1016.40 1017.01 1017.58 1018.09 1018.53 1018.92 1019.26 1019.57 1019.86 1020.15 1020.43 1020.69 1020.92 1021.12 1021.27 1021.38 1021.46 1021.53 1021.60 1021.68 1021.78 1021.92
1012.27 1011.75 1011.37 1011.15 1011.09 1011.19 1011.42 1011.74 1012.08 1012.41 1012.68 1012.87 1012.98 1013.06 1013.13 1013.24 1013.43 1013.73 1014.14 1014.65 1015.24 1015.86 1016.47 1017.06 1017.59 1018.06 1018.49 1018.88 1019.25 1019.62 1019.98 1020.34 1020.67 1020.97 1021.22 1021.40 1021.53 1021.61 1021.66 1021.70 1021.75 1021.83 1021.94
1013.22 1012.58 1012.04 1011.65 1011.44 1011.39 1011.48 1011.67 1011.92 1012.16 1012.36 1012.49 1012.57 1012.60 1012.64 1012.73 1012.89 1013.17 1013.57 1014.07 1014.65 1015.26 1015.88 1016.46 1017.01 1017.50 1017.96 1018.40 1018.83 1019.27 1019.72 1020.15 1020.57 1020.94 1021.24 1021.47 1021.62 1021.70 1021.75 1021.77 1021.80 1021.85 1021.93
1014.10 1013.36 1012.70 1012.16 1011.79 1011.58 1011.52 1011.57 1011.69 1011.83 1011.95 1012.02 1012.05 1012.06 1012.08 1012.15 1012.31 1012.58 1012.98 1013.47 1014.04 1014.65 1015.27 1015.86 1016.41 1016.93 1017.42 1017.90 1018.38 1018.88 1019.38 1019.89 1020.37 1020.79 1021.15 1021.42 1021.60 1021.70 1021.75 1021.76 1021.77 1021.80 1021.86
1014.84 1014.03 1013.27 1012.62 1012.10 1011.74 1011.52 1011.42 1011.41 1011.44 1011.47 1011.48 1011.47 1011.45 1011.46 1011.53 1011.70 1011.98 1012.37 1012.87 1013.45 1014.06 1014.69 1015.29 1015.86 1016.40 1016.91 1017.42 1017.94 1018.47 1019.02 1019.56 1020.07 1020.54 1020.93 1021.23 1021.44 1021.56 1021.62 1021.63 1021.64 1021.66 1021.71
1015.38 1014.54 1013.72 1012.97 1012.33 1011.83 1011.47 1011.23 1011.09 1011.00 1010.94 1010.89 1010.83 1010.80 1010.80 1010.88 1011.06 1011.35 1011.77 1012.28 1012.87 1013.50 1014.14 1014.77 1015.36 1015.93 1016.47 1017.00 1017.53 1018.07 1018.63 1019.17 1019.70 1020.17 1020.57 1020.89 1021.12 1021.26 1021.34 1021.38 1021.39 1021.42 1021.47
Thickness
5787 5788 5786 5784 5782 5780 5779 5778 5777 5776 5775 5775 5774 5773 5773 5772 5772 5772 5772 5772 5772 5773 5773 5772 5771 5772 5770 5768 5767 5766 5766 5765 5764 5763 5762 5761 5760 5759 5758 5758 5757 5756 5756
5792 5789 5786 5783 5781 5779 5778 5777 5776 5775 5774 5773 5772 5771 5771 5771 5770 5770 5770 5770 5770 5771 5771 5771 5770 5769 5768 5767 5765 5764 5764 5763 5762 5761 5760 5759 5759 5757 5757 5756 5756 5755 5754
5793 5789 5786 5783 5780 5778 5777 5775 5775 5774 5772 5771 5771 5770 5769 5769 5769 5768 5768 5768 5768 5768 5769 5769 5768 5766 5765 5765 5764 5763 5761 5760 5759 5759 5758 5757 5757 5756 5755 5754 5754 5754 5753
5792 5788 5785 5782 5779 5777 5775 5774 5773 5772 5771 5770 5769 5768 5767 5767 5766 5766 5766 5766 5766 5765 5766 5766 5765 5764 5763 5762 5761 5761 5759 5758 5757 5756 5755 5755 5754 5754 5753 5753 5753 5752 5751
5791 5787 5784 5781 5778 5776 5775 5773 5772 5771 5770 5768 5767 5766 5765 5765 5764 5764 5764 5764 5763 5763 5763 5763 5762 5761 5761 5760 5760 5759 5757 5756 5755 5754 5753 5752 5752 5752 5751 5751 5751 5750 5749
5789 5786 5783 5780 5778 5775 5774 5772 5770 5769 5768 5767 5766 5764 5764 5763 5762 5762 5761 5761 5761 5761 5760 5760 5760 5759 5759 5758 5758 5757 5756 5755 5753 5752 5751 5751 5750 5750 5750 5750 5750 5749 5747
5787 5784 5781 5779 5777 5775 5773 5771 5769 5768 5767 5765 5764 5763 5762 5761 5760 5760 5759 5759 5759 5758 5758 5758 5757 5757 5757 5756 5756 5755 5754 5753 5751 5750 5749 5749 5749 5748 5748 5748 5748 5747 5745
5786 5782 5779 5777 5775 5774 5772 5770 5768 5766 5765 5763 5762 5761 5760 5759 5759 5758 5758 5757 5756 5756 5756 5755 5755 5755 5755 5754 5753 5752 5752 5751 5749 5748 5748 5748 5748 5748 5747 5747 5746 5744 5743
5785 5781 5778 5776 5774 5773 5771 5769 5767 5765 5763 5762 5760 5759 5758 5757 5757 5757 5758 5756 5755 5754 5753 5753 5753 5753 5752 5752 5751 5750 5750 5749 5747 5747 5747 5747 5747 5746 5746 5745 5744 5743 5742
5782 5779 5777 5775 5773 5771 5769 5767 5765 5763 5762 5760 5758 5756 5755 5755 5754 5755 5755 5754 5753 5752 5751 5751 5750 5750 5750 5749 5749 5748 5747 5745 5745 5745 5745 5745 5745 5745 5744 5743 5742 5741 5740
5779 5778 5776 5774 5772 5769 5767 5766 5764 5762 5760 5758 5756 5754 5753 5752 5752 5752 5752 5752 5751 5750 5749 5749 5748 5748 5747 5746 5746 5745 5744 5743 5743 5742 5743 5743 5743 5743 5742 5741 5740 5740 5738
5777 5777 5775 5773 5770 5768 5766 5764 5762 5760 5757 5755 5754 5752 5751 5749 5749 5749 5749 5748 5748 5748 5747 5746 5745 5745 5744 5743 5743 5742 5741 5741 5740 5740 5741 5741 5741 5741 5740 5739 5738 5738 5736
5779 5777 5775 5773 5770 5767 5765 5763 5760 5758 5756 5754 5752 5750 5749 5747 5746 5745 5745 5745 5744 5744 5744 5743 5742 5741 5741 5740 5739 5739 5739 5738 5738 5738 5739 5739 5739 5739 5738 5737 5736 5735 5734
5778 5777 5776 5773 5770 5767 5764 5762 5759 5757 5754 5752 5750 5748 5746 5744 5743 5742 5741 5741 5741 5741 5740 5740 5739 5738 5738 5737 5736 5736 5736 5736 5735 5736 5736 5736 5736 5736 5736 5735 5734 5733 5732
5778 5777 5775 5773 5770 5766 5763 5761 5758 5755 5753 5750 5748 5746 5744 5743 5741 5739 5738 5738 5738 5738 5737 5737 5736 5735 5735 5734 5734 5733 5733 5733 5733 5733 5734 5734 5734 5734 5734 5733 5732 5731 5730
5779 5776 5775 5772 5770 5766 5763 5760 5757 5754 5752 5749 5746 5745 5743 5741 5739 5737 5736 5735 5735 5735 5734 5733 5733 5732 5731 5731 5730 5730 5730 5730 5731 5731 5731 5731 5731 5731 5731 5730 5729 5728 5727
5781 5778 5774 5772 5768 5765 5762 5759 5756 5753 5750 5748 5745 5743 5741 5739 5738 5735 5734 5733 5732 5732 5731 5731 5730 5729 5728 5728 5728 5728 5728 5728 5728 5728 5728 5728 5728 5728 5728 5728 5727 5726 5726
5781 5777 5774 5772 5767 5763 5760 5757 5754 5751 5748 5746 5744 5742 5740 5738 5736 5734 5732 5731 5730 5729 5729 5727 5726 5725 5724 5724 5724 5725 5725 5725 5726 5726 5726 5726 5726 5725 5726 5725 5725 5724 5724
5782 5777 5773 5770 5766 5762 5759 5755 5752 5749 5746 5744 5742 5740 5738 5737 5735 5733 5731 5729 5728 5726 5725 5724 5722 5722 5720 5720 5721 5721 5722 5723 5723 5723 5723 5723 5723 5723 5723 5723 5722 5721 5721
5780 5776 5772 5768 5765 5761 5757 5753 5749 5746 5744 5742 5740 5738 5737 5735 5734 5732 5729 5728 5726 5724 5722 5721 5719 5719 5717 5717 5718 5718 5718 5719 5719 5720 5720 5720 5720 5720 5720 5720 5719 5718 5718
5778 5774 5770 5766 5763 5759 5754 5749 5745 5742 5741 5739 5738 5736 5735 5733 5732 5730 5729 5726 5724 5722 5720 5719 5717 5716 5714 5714 5713 5712 5714 5716 5716 5717 5717 5717 5717 5717 5717 5716 5716 5715 5715
5776 5773 5770 5766 5762 5759 5755 5750 5746 5742 5739 5738 5736 5734 5732 5731 5730 5729 5727 5725 5723 5721 5719 5717 5716 5713 5712 5712 5709 5707 5705 5708 5711 5714 5713 5713 5713 5713 5713 5713 5712 5711 5711
5773 5771 5770 5765 5762 5758 5754 5749 5744 5740 5736 5735 5733 5731 5730 5729 5728 5727 5725 5723 5722 5720 5717 5716 5715 5713 5710 5709 5709 5706 5702 5700 5704 5708 5709 5709 5709 5709 5709 5709 5709 5708 5707
5773 5770 5767 5764 5760 5757 5753 5748 5742 5737 5733 5732 5730 5729 5728 5726 5725 5725 5723 5722 5720 5718 5716 5715 5713 5712 5710 5707 5706 5706 5705 5704 5700 5700 5704 5705 5705 5705 5705 5705 5705 5704 5703
5771 5768 5765 5761 5758 5755 5751 5747 5741 5737 5734 5731 5729 5726 5725 5724 5723 5722 5721 5719 5718 5716 5715 5713 5712 5710 5709 5707 5705 5703 5702 5701 5701 5698 5696 5699 5700 5701 5701 5701 5701 5700 5700
5767 5765 5762 5758 5755 5752 5749 5745 5740 5736 5732 5728 5726 5723 5722 5721 5720 5719 5718 5717 5716 5714 5713 5711 5710 5709 5707 5706 5705 5703 5702 5700 5698 5697 5694 5694 5695 5697 5698 5698 5698 5697 5697